User: anonymous   Login
Location: Bouchavesnes-Bergen
(49.9859°N, 2.9203°E)
Time: 03:55:47
(UTC+00:00)
Language:

Cosmos 1437 Rocket - Orbit

View from above orbital plane
View from above orbital plane
View from above satellite
View from above satellite

Ground track
Ground track

The orbit data is extracted from the following two-line orbital elements,

1 13771U 83003B   21125.40267826  .00000988  00000-0  56550-4 0  9999
2 13771  81.1641 168.1248 0044670 343.8895  16.0906 15.10875720 87859
Epoch (UTC): 05 May 2021 09:39:51
Eccentricity: 0.0044670
inclination: 81.1641°
perigee height: 502 km
apogee height: 564 km
right ascension of ascending node: 168.1248°
argument of perigee: 343.8895°
revolutions per day: 15.10875720
mean anomaly at epoch: 16.0906°
orbit number at epoch: 8785

The dashed part of the orbit path shows where the satellite is in the earth's shadow,  

DLR